Regional Weather Roundup
Issued by NWS

Home | Current Version | Previous Version | Text Only | Print | Product List | Glossary Off
Versions: 1 2 3 4 5 6 7 8 9 10 11 12 13 14 15 16 17 18 19 20 21 22 23 24 25 26 27 28 29 30 31 32 33 34 35 36 37 38 39 40 41 42 43 44 45 46 47 48 49 50

000
ASUS43 KFSD 220910
RWRSD

WEATHER ROUNDUP FOR SOUTH DAKOTA
NATIONAL WEATHER SERVICE SIOUX FALLS SD
400 AM CDT SAT JUL 22 2017

NOTE: "FAIR" INDICATES FEW OR NO CLOUDS BELOW 12,000 FEET WITH NO
SIGNIFICANT WEATHER AND/OR OBSTRUCTIONS TO VISIBILITY.


SDZ001>005-009-010-012>017-221000-
NORTHWEST AND NORTH CENTRAL SOUTH DAKOTA

CITY           SKY/WX    TMP DP  RH WIND       PRES   REMARKS
BUFFALO          N/A     60  45  57 SW6       29.95R
FAITH            N/A     63  43  48 N10       29.94S
MOBRIDGE       MOCLDY    65  63  93 CALM      29.85R
$$

SDZ012>016-024>037-041>051-057-063-072>074-221000-
SOUTHWEST AND SOUTH CENTRAL SOUTH DAKOTA

CITY           SKY/WX    TMP DP  RH WIND       PRES   REMARKS
RAPID CTY ARPT CLOUDY    68  42  38 N12       30.00S
PIERRE         PTCLDY    64  62  93 W5        29.86S
CUSTER         CLOUDY    59  37  44 N3        30.16F
ELLSWORTH AFB  CLOUDY    75  37  25 N8        30.00S
PHILIP         PTCLDY    67  47  48 W3        29.94R
PINE RIDGE     MOCLDY    64  62  93 CALM      30.01S
SPEARFISH      FAIR      61  41  48 S8        30.06S
WINNER         FAIR      73  68  84 CALM      29.90S
$$

SDZ004>011-016>023-039-040-221000-
NORTHEAST SOUTH DAKOTA

CITY           SKY/WX    TMP DP  RH WIND       PRES   REMARKS
ABERDEEN       MOCLDY    68  67  96 W5        29.82S
WATERTOWN      PTCLDY    66  66 100 W3        29.81S
BROOKINGS      CLOUDY    68  66  93 SW6       29.81R
SISSETON         N/A     71  69  93 SW7       29.77R
$$

SDZ017-020-022-023-036>040-048>070-221000-
SOUTHEAST SOUTH DAKOTA

CITY           SKY/WX    TMP DP  RH WIND       PRES   REMARKS
SIOUX FALLS    CLOUDY    72  66  81 E14       29.83F
HURON          CLEAR     66  66 100 S6        29.82R
CHAMBERLAIN    CLEAR     69  67  94 SW5       29.86S
MITCHELL       CLEAR     69  67  93 SW3       29.83R
YANKTON        PTCLDY    72  70  93 NE5       29.82S
$$

ABBREVIATIONS USED IN REMARKS
   TC - TEMPERATURE IN CELSIUS
  WCI - WIND CHILL INDEX
   HX - HEAT INDEX
  VSB - VISIBILITY




USA.gov is the U.S. government's official web portal to all federal, state and local government web resources and services.